GW5243 Weather Reports


Display with metric or nautical units.
time (UTC)temp
F
wind
direction
speed
MPH
gust
MPH
rain 1hr
in
rain 24hr
in
rain mn
in
humidity
%
barometer
mb
20260906204528 66 360 0.0 5.0 0.00 0.74 0.44 55 1015.2
20260906203033 67 126 0.0 6.0 0.00 0.74 0.44 54 1015.1
20260906201514 69 111 4.0 9.0 0.00 0.74 0.44 51 1015.0
20260906200019 69 134 2.0 9.0 0.00 0.74 0.44 53 1014.9
20260906194526 69 38 3.0 8.0 0.00 0.74 0.44 55 1014.9
20260906193027 68 343 1.0 9.0 0.00 0.74 0.44 57 1014.9
20260906191532 67 333 3.0 9.0 0.00 0.74 0.44 63 1015.0
20260906190021 69 61 1.0 4.0 0.00 0.74 0.44 61 1015.1
20260906184527 69 166 1.0 7.0 0.00 0.74 0.44 61 1015.0
20260906183031 69 92 1.0 8.0 0.00 0.74 0.44 63 1015.0
20260906181531 68 15 2.0 7.0 0.00 0.74 0.44 66 1015.2
20260906180034 68 15 1.0 10.0 0.00 0.74 0.44 65 1015.3
20260906174523 67 82 2.0 8.0 0.00 0.74 0.44 65 1015.4
20260906173028 67 339 2.0 11.0 0.00 0.74 0.44 58 1015.5
20260906171532 67 82 3.0 10.0 0.00 0.74 0.44 62 1015.7
20260906170105 67 323 2.0 12.0 0.00 0.74 0.44 63 1015.8
20260906164519 68 76 2.0 8.0 0.00 0.74 0.44 67 1015.7
20260906163028 67 341 2.0 8.0 0.00 0.74 0.44 68 1015.9
20260906161512 66 240 1.0 8.0 0.00 0.74 0.44 73 1015.8
20260906160011 66 22 3.0 7.0 0.00 0.74 0.44 73 1015.9
20260906154521 65 282 2.0 6.0 0.00 0.74 0.44 75 1016.1
20260906153022 62 101 3.0 7.0 0.00 0.74 0.44 79 1016.2
20260906151517 61 222 0.0 5.0 0.00 0.74 0.44 84 1016.2
20260906150018 62 76 1.0 5.0 0.00 0.74 0.44 78 1016.3
20260906144518 63 123 1.0 9.0 0.00 0.74 0.44 80 1016.2
20260906143015 60 92 1.0 4.0 0.01 0.74 0.44 88 1016.2
20260906141516 60 317 0.0 3.0 0.01 0.74 0.44 90 1016.2
20260906140019 61 131 1.0 3.0 0.01 0.74 0.44 86 1016.1
20260906134526 60 231 0.0 2.0 0.01 0.74 0.44 90 1015.9
20260906133018 58 19 0.0 2.0 0.00 0.73 0.43 93 1016.1
20260906131506 57 228 0.0 2.0 0.00 0.73 0.43 91 1016.3
20260906130005 57 224 0.0 2.0 0.00 0.73 0.43 93 1016.2
20260906124511 57 12 0.0 2.0 0.00 0.73 0.43 96 1016.2
20260906123025 56 89 0.0 2.0 0.01 0.73 0.43 94 1016.0
20260906121523 56 197 0.0 2.0 0.02 0.73 0.43 96 1015.9
20260906120005 55 61 0.0 2.0 0.05 0.73 0.43 97 1016.1
20260906114506 55 107 0.0 0.0 0.05 0.73 0.43 97 1015.9
20260906113014 54 86 0.0 2.0 0.05 0.72 0.42 96 1015.8
20260906111525 54 95 0.0 2.0 0.07 0.71 0.41 96 1015.7
20260906110021 54 352 0.0 2.0 0.05 0.68 0.38 96 1015.6
20260906104505 54 188 0.0 0.0 0.09 0.68 0.38 96 1015.0
20260906103013 54 188 0.0 2.0 0.12 0.67 0.37 96 1015.2
20260906101514 54 182 0.0 2.0 0.11 0.64 0.34 96 1015.1
20260906100017 54 309 0.0 2.0 0.14 0.63 0.33 95 1014.9
20260906094526 55 36 0.0 2.0 0.10 0.58 0.29 95 1014.7
20260906093008 55 55 0.0 2.0 0.06 0.55 0.25 95 1014.6
20260906091515 56 9 0.0 2.0 0.04 0.52 0.23 96 1014.5
20260906090019 56 9 0.0 2.0 0.01 0.49 0.19 96 1014.3
20260906084524 56 9 0.0 2.0 0.01 0.49 0.19 96 1014.1
20260906083033 57 22 0.0 2.0 0.02 0.49 0.19 96 1014.2
20260906081510 57 256 0.0 0.0 0.02 0.49 0.19 97 1014.1
20260906080026 57 256 0.0 2.0 0.07 0.48 0.18 97 1014.1
20260906074524 57 256 0.0 2.0 0.11 0.48 0.18 97 1013.9
20260906073025 57 196 0.0 2.0 0.16 0.47 0.17 97 1014.0
20260906071531 57 306 0.0 2.0 0.16 0.47 0.17 96 1013.9
20260906070015 57 306 0.0 2.0 0.10 0.41 0.11 96 1013.9
20260906064515 57 306 0.0 2.0 0.06 0.37 0.07 96 1014.0
20260906063027 57 306 0.0 2.0 0.00 0.31 0.01 96 1013.9
20260906061532 57 67 0.0 1.0 0.00 0.31 0.01 97 1013.8
20260906060033 57 9 0.0 0.0 0.00 0.31 0.01 97 1013.7
20260906054516 57 9 0.0 0.0 0.00 0.31 0.01 96 1013.8
20260906053020 57 9 0.0 0.0 0.00 0.31 0.01 96 1013.8
20260906051527 57 9 0.0 0.0 0.01 0.31 0.01 96 1013.8
20260906050027 57 9 0.0 0.0 0.01 0.31 0.01 96 1013.8
20260906044514 57 9 0.0 2.0 0.01 0.31 0.01 96 1014.0
20260906043029 57 9 0.0 2.0 0.01 0.31 0.01 96 1013.9
20260906041526 57 9 0.0 0.0 0.00 0.30 0.00 96 1013.9
20260906040030 57 9 0.0 2.0 0.00 0.30 0.00 96 1013.9
20260906034531 58 9 0.0 2.0 0.00 0.30 0.30 96 1013.8
20260906033023 58 9 0.0 0.0 0.00 0.30 0.30 96 1013.7
20260906031524 58 9 0.0 0.0 0.01 0.30 0.30 96 1013.6
20260906030027 58 9 0.0 1.0 0.03 0.30 0.30 95 1013.5
20260906024531 58 9 0.0 2.0 0.04 0.30 0.30 1013.5
20260906023045 58 9 0.0 2.0 0.05 0.30 0.30 95 1013.6
20260906021518 58 18 0.0 1.0 0.06 0.29 0.29 95 1013.7
20260906020026 58 45 0.0 2.0 0.06 0.27 0.27 95 1013.7
20260906014530 58 57 0.0 2.0 0.12 0.26 0.26 95 1013.7
20260906013041 58 75 0.0 2.0 0.12 0.25 0.25 94 1013.6
20260906011544 58 93 0.0 2.0 0.12 0.23 0.23 94 1013.8
20260906010024 58 352 1.0 2.0 0.13 0.21 0.21 93 1013.8
20260906004527 59 49 0.0 2.0 0.09 0.14 0.14 93 1013.6
20260906003027 59 340 0.0 2.0 0.12 0.13 0.13 92 1013.4
20260906001531 59 15 0.0 2.0 0.11 0.11 0.11 92 1013.5
20260906000049 60 73 1.0 5.0 0.08 0.08 0.08 90 1013.2
20260905234526 62 90 1.0 4.0 0.05 0.05 0.05 88 1013.0
20260905233029 64 151 0.0 2.0 0.01 0.01 0.01 83 1013.0
20260905231531 66 55 1.0 7.0 0.00 0.00 0.00 76 1012.5
20260905230032 67 289 0.0 3.0 0.00 0.00 0.00 73 1012.1
20260905224546 68 338 0.0 5.0 0.00 0.00 0.00 72 1012.0
20260905223027 68 62 0.0 2.0 0.00 0.00 0.00 72 1011.9
20260905221532 69 22 0.0 2.0 0.00 0.00 0.00 72 1011.8
20260905220034 70 293 1.0 4.0 0.00 0.00 0.00 68 1011.8
20260905214520 70 26 1.0 5.0 0.00 0.00 0.00 67 1011.7
20260905213030 70 336 0.0 2.0 0.00 0.00 0.00 74 1011.5
20260905211529 70 134 1.0 2.0 0.00 0.00 0.00 70 1011.3
20260905210009 70 209 0.0 2.0 0.00 0.00 0.00 72 1011.3